[[{"header":{"parameterUnit":"m.s-1","parameterCategory":1,"la1":30.2991,"la2":30.254,"lo1":-89.0895,"lo2":-89.0444,"dy":0.0017,"dx":0.0017,"nx":28,"ny":28,"refTime":"2024-04-23T21:00:00:Z","depth":0,"parameterNumber":2,"parameterNumberName":"U-component_of_WINDS"},"data":[0,0,0,0,0,0,0,0,0,0,0,0,0,0,0,0,0,0,0,0,0,0,0,0,0,0,0,0,0,0,0,0,0,0,0,0,0,0,0,0,0,0,0,0,0,0,0,0,0,0,0,0,0,0,0,0,0,0,-0.8275,-0.8273,0,-0.8128,-0.8127,-0.8125,-0.8039,-0.8039,-0.8038,-0.8038,-0.7886,-0.7882,-0.7879,0,0,0,0,0,0,0,0,0,0,0,0,0,-0.848,-0.8477,-0.8275,-0.8273,-0.8271,-0.8129,-0.8127,-0.8125,-0.8039,-0.8039,-0.8038,-0.8038,-0.7887,-0.7883,-0.7878,0,0,0,0,0,0,0,0,0,0,0,0,0,-0.8368,-0.8476,-0.8275,-0.8211,-0.8204,-0.8129,-0.8126,-0.8124,-0.8039,-0.8039,-0.8038,-0.8038,-0.7888,-0.7883,-0.7878,-0.7854,0,0,-0.786,-0.7858,0,0,0,0,0,0,0,0,-0.8374,-0.836,-0.8223,-0.8216,-0.8207,-0.8101,-0.8143,-0.8033,-0.8039,-0.8102,-0.8038,-0.8037,-0.7958,-0.7947,-0.792,-0.7847,-0.784,-0.786,-0.7857,-0.7854,-0.7853,0,0,0,0,0,0,0,-0.8382,-0.8366,-0.8217,-0.8221,-0.8211,-0.819,-0.8173,-0.8122,-0.8034,-0.8096,-0.809,-0.8074,-0.7954,-0.7926,-0.7916,-0.7838,-0.786,-0.7855,-0.7852,-0.785,-0.7739,-0.7739,0,0,0,0,0,0,-0.84,-0.8373,-0.8221,-0.8212,-0.8291,-0.8187,-0.8168,-0.8136,-0.8035,-0.8019,-0.8074,-0.807,-0.7936,-0.7923,-0.791,-0.7877,-0.7854,-0.7849,-0.7846,-0.7739,-0.7739,-0.7739,0,0,0,0,0,0,-0.8405,-0.8388,-0.8227,-0.8291,-0.8269,-0.8184,-0.8148,-0.8133,-0.8105,-0.8018,-0.8002,-0.8062,-0.7935,-0.7918,-0.7869,-0.787,-0.7846,-0.7841,-0.7738,-0.7739,-0.7739,-0.7809,0,0,0,0,0,0,-0.8411,-0.839,-0.838,-0.8291,-0.8266,-0.8189,-0.8148,-0.8131,-0.8096,-0.809,-0.8002,-0.7987,-0.7933,-0.7878,-0.7863,-0.7862,-0.7837,-0.7738,-0.7738,-0.7739,-0.7806,-0.7812,-0.7817,0,0,0,0,0,-0.8419,-0.8404,-0.838,-0.8362,-0.8252,-0.8189,-0.8174,-0.8113,-0.8097,-0.8086,-0.803,-0.799,-0.7873,-0.7873,-0.7856,-0.7854,-0.7737,-0.7738,-0.7739,-0.7804,-0.7811,-0.7817,0,0,0,0,0,0,-0.8494,-0.8392,-0.8363,-0.832,-0.8264,-0.8175,-0.8159,-0.8122,-0.8069,-0.8065,-0.799,-0.7971,-0.7929,-0.7886,-0.7889,-0.7826,-0.78,-0.7798,-0.7855,-0.7861,-0.7867,-0.7878,-0.7832,0,0,0,0,0,-0.8506,-0.8464,-0.8376,-0.8346,-0.832,-0.8245,-0.8215,-0.8173,-0.8112,-0.8087,-0.8028,-0.797,-0.792,-0.7888,-0.7837,-0.78,-0.778,-0.7789,-0.7795,-0.78,-0.7798,-0.7777,-0.778,-0.7743,-0.7743,-0.7742,0,0,-0.8529,-0.8468,-0.8446,-0.836,-0.8312,-0.827,-0.8225,-0.8183,-0.8151,-0.808,-0.8031,-0.7986,-0.7916,-0.7873,-0.7851,-0.7836,-0.7805,-0.7801,-0.7805,-0.7801,-0.7778,-0.7782,-0.7785,-0.7743,-0.7743,-0.7743,0,0,-0.855,-0.85,-0.847,-0.8423,-0.8351,-0.8301,-0.8295,-0.8211,-0.8179,-0.8128,-0.8075,-0.8036,-0.7951,-0.7904,-0.7869,-0.7876,-0.7837,-0.7861,-0.7888,-0.7868,-0.7871,-0.7874,-0.7877,-0.7879,-0.786,-0.786,-0.786,0,-0.8588,-0.8523,-0.8459,-0.842,-0.8384,-0.832,-0.829,-0.8247,-0.8162,-0.8139,-0.8124,-0.8017,-0.7965,-0.7911,-0.7913,-0.7887,-0.7877,-0.787,-0.7876,-0.7878,-0.7879,-0.7881,-0.7882,-0.7864,-0.7863,-0.7863,-0.7863,0,-0.8574,-0.853,-0.8515,-0.8436,-0.8398,-0.8364,-0.8294,-0.8264,-0.8226,-0.8178,-0.8128,-0.8064,-0.8,-0.7984,-0.7945,-0.7925,-0.7918,-0.7891,-0.7863,-0.7887,-0.7888,-0.7888,-0.7869,-0.7867,-0.7866,-0.7865,0,0,-0.8637,-0.8525,-0.852,-0.8484,-0.8401,-0.8366,-0.8329,-0.8267,-0.8243,-0.8187,-0.8155,-0.8086,-0.806,-0.8021,-0.7976,-0.7959,-0.7969,-0.7933,-0.793,-0.7943,-0.7944,-0.7966,-0.7968,-0.7944,-0.7943,-0.7943,-0.7951,0,-0.8646,-0.8577,-0.852,-0.8472,-0.8431,-0.8371,-0.8339,-0.8285,-0.824,-0.8198,-0.8148,-0.8101,-0.8071,-0.8047,-0.8027,-0.7972,-0.7969,-0.7971,-0.7913,-0.7911,-0.7932,-0.7968,-0.799,-0.8,-0.795,-0.795,-0.795,0,-0.8648,-0.8596,-0.8545,-0.8468,-0.8448,-0.8421,-0.8361,-0.8322,-0.826,-0.8228,-0.8186,-0.814,-0.8098,-0.8076,-0.8019,-0.8022,-0.7994,-0.7965,-0.7963,-0.7956,-0.7932,-0.7962,-0.8001,-0.8003,-0.795,-0.795,-0.795,0,-0.87,-0.8617,-0.8576,-0.8547,-0.8456,-0.8438,-0.8399,-0.8337,-0.8304,-0.8251,-0.8229,-0.8172,-0.8141,-0.8098,-0.8039,-0.8028,-0.7988,-0.796,-0.7961,-0.7962,-0.7955,-0.7956,-0.7991,-0.7937,-0.7937,-0.7937,-0.7937,0,-0.8717,-0.8688,-0.8599,-0.8574,-0.854,-0.8474,-0.8443,-0.8399,-0.8344,-0.8309,-0.8253,-0.8222,-0.8145,-0.8105,-0.8058,-0.8018,-0.8004,-0.7977,-0.7965,-0.7983,-0.7986,-0.7964,-0.7962,-0.7937,-0.7937,-0.7937,-0.7937,0,-0.877,-0.8708,-0.866,-0.8578,-0.8557,-0.8536,-0.8466,-0.844,-0.8392,-0.835,-0.8336,-0.8261,-0.8211,-0.8147,-0.8076,-0.8045,-0.801,-0.7991,-0.8032,-0.8025,-0.8029,-0.803,-0.8052,-0.8051,-0.7998,-0.7998,-0.7999,0,-0.8785,-0.8761,-0.8678,-0.8651,-0.8614,-0.8572,-0.8538,-0.8473,-0.8441,-0.8369,-0.8352,-0.8298,-0.8251,-0.8174,-0.8113,-0.8059,-0.8039,-0.805,-0.803,-0.8049,-0.804,-0.8042,-0.804,-0.8055,-0.8056,-0.8057,-0.8057,0,-0.8818,-0.8789,-0.8744,-0.8689,-0.8651,-0.8604,-0.8554,-0.8536,-0.846,-0.8427,-0.8375,-0.8339,-0.8268,-0.8215,-0.8154,-0.8113,-0.8073,-0.8064,-0.8062,-0.8079,-0.8104,-0.8091,-0.8046,-0.8064,-0.8063,-0.8063,-0.8062,-0.8062,-0.8852,-0.8829,-0.8768,-0.8719,-0.8676,-0.8631,-0.8603,-0.8553,-0.8509,-0.8447,-0.8411,-0.8361,-0.83,-0.8214,-0.8176,-0.8136,-0.812,-0.8116,-0.8115,-0.8116,-0.8122,-0.8111,-0.8124,-0.8124,-0.8124,-0.8123,-0.8123,0,-0.8883,-0.8841,-0.8798,-0.8731,-0.8693,-0.866,-0.8604,-0.8574,-0.8532,-0.8479,-0.8435,-0.8377,-0.8326,-0.8262,-0.8207,-0.8187,-0.8167,-0.8175,-0.8176,-0.8167,-0.8138,-0.8146,-0.8192,-0.8192,-0.8192,-0.8192,-0.8192,-0.8192,-0.8895,-0.8856,-0.882,-0.8758,-0.8716,-0.8667,-0.8638,-0.8597,-0.8555,-0.8493,-0.8451,-0.841,-0.8353,-0.8294,-0.8246,-0.8228,-0.8211,-0.8224,-0.8202,-0.8175,-0.8169,-0.8163,-0.8171,-0.8221,-0.8221,-0.8234,-0.8234,-0.8235]},{"header":{"parameterUnit":"m.s-1","parameterCategory":1,"la1":30.2991,"la2":30.254,"lo1":-89.0895,"lo2":-89.0444,"dy":0.0017,"dx":0.0017,"nx":28,"ny":28,"refTime":"2024-04-23T21:00:00:Z","depth":0,"parameterNumber":3,"parameterNumberName":"V-component_of_WINDS"},"data":[0,0,0,0,0,0,0,0,0,0,0,0,0,0,0,0,0,0,0,0,0,0,0,0,0,0,0,0,0,0,0,0,0,0,0,0,0,0,0,0,0,0,0,0,0,0,0,0,0,0,0,0,0,0,0,0,0,0,3.5148,3.5147,0,3.5102,3.5101,3.5101,3.5117,3.5118,3.5119,3.512,3.5067,3.5065,3.5062,0,0,0,0,0,0,0,0,0,0,0,0,0,3.5246,3.5244,3.5148,3.5147,3.5147,3.5102,3.5101,3.5101,3.5117,3.5118,3.5119,3.5121,3.5068,3.5065,3.5062,0,0,0,0,0,0,0,0,0,0,0,0,0,3.5201,3.5243,3.5148,3.515,3.5149,3.5102,3.5101,3.51,3.5117,3.5118,3.512,3.5121,3.5069,3.5065,3.5062,3.5008,0,0,3.5051,3.5049,0,0,0,0,0,0,0,0,3.5204,3.5198,3.515,3.5149,3.5149,3.5117,3.5116,3.5069,3.5116,3.5129,3.512,3.5122,3.5082,3.5077,3.5065,3.5006,3.5003,3.505,3.5048,3.5047,3.5046,0,0,0,0,0,0,0,3.5207,3.52,3.5129,3.5149,3.5149,3.5151,3.5147,3.5107,3.5097,3.5128,3.5129,3.5124,3.5082,3.5068,3.5064,3.5003,3.505,3.5047,3.5045,3.5044,3.4898,3.4897,0,0,0,0,0,0,3.5211,3.5202,3.5131,3.5128,3.5181,3.5148,3.5143,3.5125,3.5097,3.5095,3.5122,3.5124,3.5074,3.5068,3.5062,3.4999,3.5047,3.5043,3.5041,3.49,3.4898,3.4896,0,0,0,0,0,0,3.5213,3.5204,3.5133,3.5166,3.5157,3.5145,3.5125,3.5124,3.511,3.5093,3.5091,3.5111,3.5075,3.5067,3.5022,3.4997,3.5042,3.5038,3.4902,3.49,3.4897,3.4871,0,0,0,0,0,0,3.5216,3.5205,3.5186,3.5165,3.5155,3.5095,3.5123,3.5122,3.5105,3.5107,3.5082,3.5079,3.5075,3.5028,3.5019,3.4993,3.5036,3.4904,3.4901,3.4898,3.4874,3.4868,3.4863,0,0,0,0,0,3.5219,3.5179,3.5185,3.5176,3.5131,3.5094,3.5087,3.5086,3.5103,3.5083,3.5072,3.508,3.5001,3.5023,3.5013,3.4986,3.4906,3.4902,3.4898,3.4877,3.4869,3.4863,0,0,0,0,0,0,3.5194,3.5176,3.5182,3.5134,3.5116,3.5096,3.5071,3.5078,3.5052,3.5055,3.5052,3.5046,3.5001,3.4988,3.5013,3.4933,3.4956,3.495,3.4943,3.4936,3.493,3.4934,3.5033,0,0,0,0,0,3.5183,3.5156,3.5141,3.51,3.5091,3.5082,3.5066,3.5067,3.5046,3.5038,3.5024,3.5002,3.4973,3.4954,3.4925,3.4873,3.4867,3.4849,3.4843,3.4839,3.4834,3.4806,3.4798,3.4884,3.4884,3.4884,0,0,3.516,3.5147,3.5129,3.5095,3.508,3.5052,3.5075,3.5043,3.5022,3.5032,3.499,3.4979,3.4955,3.4906,3.4884,3.4895,3.4809,3.4834,3.483,3.4828,3.4801,3.4793,3.4786,3.4881,3.4881,3.4882,0,0,3.5103,3.509,3.5055,3.5041,3.502,3.5015,3.5007,3.4987,3.4981,3.4939,3.4947,3.492,3.4869,3.4852,3.4837,3.4775,3.4782,3.4766,3.4736,3.4709,3.4702,3.4696,3.4675,3.4667,3.4761,3.4761,3.4761,0,3.5076,3.5035,3.5036,3.5004,3.4989,3.5,3.4964,3.4949,3.4919,3.4908,3.4921,3.4859,3.4843,3.4791,3.4776,3.4763,3.4753,3.4769,3.4703,3.4697,3.4692,3.4671,3.4663,3.4759,3.4759,3.4759,3.476,0,3.5003,3.4974,3.4948,3.4922,3.4903,3.4869,3.4865,3.4845,3.4848,3.4841,3.4798,3.478,3.475,3.4737,3.4738,3.4685,3.4693,3.4705,3.4727,3.4682,3.4663,3.4655,3.4757,3.4757,3.4758,3.4758,0,0,3.4928,3.4905,3.4895,3.4884,3.4862,3.4839,3.4805,3.4778,3.4762,3.474,3.4712,3.467,3.4681,3.4664,3.4663,3.4639,3.4593,3.4654,3.4653,3.4644,3.4535,3.4527,3.4518,3.4597,3.4596,3.4594,3.4537,0,3.487,3.4814,3.4815,3.4762,3.4735,3.4746,3.4717,3.47,3.4693,3.4668,3.466,3.4631,3.4647,3.4637,3.4614,3.4603,3.4571,3.4607,3.457,3.4569,3.4577,3.4507,3.4498,3.4445,3.4529,3.4528,3.4527,0,3.4794,3.4774,3.472,3.4704,3.4692,3.4666,3.4642,3.4618,3.4599,3.4596,3.4577,3.4581,3.4546,3.457,3.4521,3.4546,3.4531,3.4524,3.4522,3.4518,3.4545,3.4503,3.4428,3.442,3.4515,3.4516,3.4517,0,3.4747,3.4705,3.4668,3.4657,3.4637,3.4619,3.4609,3.4592,3.4576,3.4553,3.4543,3.4516,3.4501,3.4479,3.4475,3.4493,3.4427,3.445,3.4422,3.4423,3.4408,3.4409,3.433,3.4397,3.4397,3.4398,3.4398,0,3.4682,3.4648,3.4646,3.4623,3.4586,3.4586,3.4549,3.454,3.4525,3.45,3.4506,3.4482,3.4478,3.4452,3.4448,3.4409,3.4402,3.4398,3.4397,3.4397,3.4398,3.4387,3.4391,3.4395,3.4396,3.4396,3.4397,0,3.4622,3.4619,3.4579,3.4564,3.456,3.4533,3.452,3.4497,3.4492,3.4459,3.4452,3.4442,3.4413,3.4407,3.437,3.4368,3.4322,3.4324,3.4329,3.433,3.4303,3.4305,3.4214,3.4203,3.4277,3.4276,3.4276,0,3.4581,3.4556,3.454,3.4524,3.4515,3.4489,3.4474,3.4473,3.4456,3.4434,3.4414,3.4385,3.4363,3.4315,3.4304,3.4276,3.4279,3.4249,3.4274,3.4276,3.4279,3.4281,3.4279,3.4244,3.4243,3.4242,3.4242,0,3.451,3.451,3.4488,3.4466,3.4448,3.443,3.4412,3.4399,3.4396,3.4377,3.4348,3.4331,3.4296,3.4267,3.424,3.4229,3.4234,3.4234,3.4226,3.4227,3.4231,3.4229,3.4316,3.4236,3.4237,3.4237,3.4237,3.4237,3.4458,3.4437,3.4423,3.4399,3.4386,3.4371,3.4349,3.4342,3.4319,3.4292,3.4293,3.4261,3.4243,3.4208,3.4195,3.417,3.4179,3.4167,3.4164,3.4162,3.416,3.4235,3.4164,3.4165,3.4165,3.4165,3.4165,0,3.4388,3.438,3.4358,3.4335,3.4316,3.4325,3.4307,3.429,3.4263,3.4247,3.4225,3.4192,3.4165,3.4153,3.4126,3.4108,3.411,3.4101,3.4102,3.41,3.4153,3.4163,3.41,3.41,3.41,3.41,3.41,3.41,3.4349,3.4314,3.4313,3.4272,3.4264,3.4235,3.4224,3.4209,3.4196,3.416,3.4139,3.4132,3.4117,3.4089,3.4065,3.4062,3.4052,3.4041,3.4039,3.4089,3.4096,3.4102,3.4111,3.4039,3.4039,3.3989,3.3988,3.3988]}]]